Content
SEND FEEDBACK

Daily
Averages
Monthly
Summary
United States of America

ASATDAS, GUAM


Home > North America > United States > Guam
Elevation: 186 meters     Latitude: 13 35N     Longitude: 144 56E

WEATHER
 
SELECT A DAY
Number of Records: 214,100;   Date Range: 1/1/95 - 10/29/14
 
SHARE

PRINT THIS DATA

[ ← Previous Day ]
WEATHER ALMANAC - 25 JANUARY, 2013
[ Next Day → ]
[ °F ]   °C
Weather ElementAverageHighLow
Temperature25.5 °C28.3 °C (9:54 am)21.7 °C (5:54 am)
Dewpoint20.3 °C22 °C (2:33 pm)18.3 °C (3:54 am)
Humidity73.4 %84 % (5:54 am)58 % (9:54 am)
Barometer1011.9 hPa1013.9 hPa (8:54 am)1010.2 hPa (2:54 pm)
Wind Speed16.9 km/h27.8 km/h (3:54 pm)
Wind Gust37 km/h (3:54 pm)
Weather ElementAverage
Visibility16.1 km
Wind DirectionENE (51.6 °)

Weather ElementTotal
Precipitation---
Cooling Degree Days6.7 (Base 18.3)
Growing Degree Days15 (Base 10)
Averaged from 25 records on 25 January, 2013
WEATHER CONDITIONS BREAKOUT
WIND DIRECTION BREAKOUT
WEATHER BY HOUR - 25 JANUARY, 2013
[ °F ]   °C
Local TimeTemperatureDewpointHumidityBarometerVisibilityWind DirectionWind SpeedGust SpeedPrecipitationEventsConditions
1:54 AM23.9 °C19.4 °C76 %1012.5 hPa16.1 kmNE (40°)9.3 km/hMostly Cloudy
2:54 AM22.8 °C18.9 °C79 %1011.9 hPa16.1 kmNE (40°)9.3 km/hPartly Cloudy
3:54 AM22.2 °C18.3 °C78 %1011.9 hPa16.1 kmNE (40°)11.1 km/hClear
4:54 AM22.8 °C18.9 °C79 %1012.2 hPa16.1 kmNNE (20°)13 km/hClear
5:54 AM21.7 °C18.9 °C84 %1012.5 hPa16.1 kmNE (50°)11.1 km/hClear
6:54 AM22.2 °C18.3 °C78 %1012.9 hPa16.1 kmNE (50°)13 km/hClear
7:54 AM23.9 °C19.4 °C76 %1013.2 hPa16.1 kmENE (60°)11.1 km/hMostly Cloudy
8:54 AM26.7 °C20 °C67 %1013.9 hPa16.1 kmNNE (30°)11.1 km/hMostly Cloudy
9:54 AM28.3 °C19.4 °C58 %1013.9 hPa16.1 kmNE (40°)18.5 km/hMostly Cloudy
10:54 AM27.2 °C20.6 °C67 %1013.2 hPa16.1 kmNE (40°)18.5 km/hOvercast
11:54 AM27.8 °C21.1 °C67 %1012.2 hPa16.1 kmNE (40°)18.5 km/hOvercast
12:54 PM27.8 °C19.4 °C60 %1011.5 hPa16.1 kmNE (40°)20.4 km/hOvercast
1:54 PM27.8 °C21.1 °C67 %1010.5 hPa16.1 kmNNE (20°)20.4 km/h29.6 km/hMostly Cloudy
2:33 PM27 °C22 °C74 %1010.8 hPa16.1 kmNorth (350°)16.7 km/hMostly Cloudy
2:43 PM27 °C22 °C74 %1010.8 hPa16.1 kmNNE (30°)20.4 km/h29.6 km/hMostly Cloudy
2:54 PM28.3 °C20 °C60 %1010.2 hPa16.1 kmNE (40°)18.5 km/hMostly Cloudy
3:54 PM27.8 °C21.1 °C67 %1010.2 hPa16.1 kmNE (40°)27.8 km/h37 km/hMostly Cloudy
4:54 PM26.7 °C21.7 °C74 %1010.8 hPa16.1 kmNorth (10°)18.5 km/hMostly Cloudy
5:54 PM26.1 °C21.1 °C74 %1010.8 hPa16.1 kmNE (40°)22.2 km/hScattered Clouds
6:54 PM25 °C21.1 °C79 %1011.2 hPa16.1 kmNE (50°)20.4 km/hPartly Cloudy
7:54 PM25 °C21.1 °C79 %1011.9 hPa16.1 kmNE (40°)20.4 km/hPartly Cloudy
8:54 PM24.4 °C21.1 °C82 %1012.5 hPa16.1 kmNE (40°)18.5 km/hScattered Clouds
9:54 PM25 °C21.1 °C79 %1012.9 hPa16.1 kmNE (40°)22.2 km/hMostly Cloudy
10:54 PM25 °C21.1 °C79 %1012.9 hPa16.1 kmNE (50°)14.8 km/hOvercast
11:54 PM25 °C21.1 °C79 %1012.5 hPa16.1 kmNE (50°)16.7 km/hMostly Cloudy
Hourly data recorded from PGUM, located 0 kilometers away from Asatdas, Guam







STORIES FROM OUR PARTNERS